EW7736 Weather Reports


Display with metric or nautical units.
time (UTC)temp
F
wind
direction
speed
MPH
gust
MPH
rain 1hr
in
rain 24hr
in
rain mn
in
humidity
%
barometer
mb
20260507141823 54 50 1.0 5.0 0.00 0.01 0.00 54 1012.7
20260507140827 54 45 1.0 5.0 0.00 0.01 0.00 53 1012.9
20260507135756 54 58 0.0 5.0 0.00 0.03 0.00 54 1013.0
20260507134809 53 119 1.0 4.0 0.00 0.04 0.00 56 1013.2
20260507132659 52 107 0.0 4.0 0.00 0.04 0.00 57 1013.3
20260507131655 52 107 0.0 3.0 0.00 0.04 0.00 57 1013.4
20260507130716 53 68 0.0 0.0 0.00 0.04 0.00 58 1013.2
20260507125727 53 40 0.0 2.0 0.00 0.04 0.00 59 1013.2
20260507123633 52 120 0.0 0.0 0.00 0.04 0.00 56 1013.2
20260507122628 51 121 0.0 0.0 0.00 0.04 0.00 50 1013.4
20260507120521 47 121 0.0 0.0 0.00 0.04 0.00 10 1013.3
20260507115526 45 121 0.0 0.0 0.00 0.06 0.00 1 1013.2
20260507114452 42 121 0.0 0.0 0.00 0.06 0.00 1 1013.2
20260507113510 40 121 0.0 0.0 0.00 0.06 0.00 1 1013.1
20260507112459 40 121 0.0 0.0 0.00 0.06 0.00 1 1013.1
20260507111501 39 121 0.0 0.0 0.00 0.06 0.00 1 1012.9
20260507110516 39 121 0.0 0.0 0.00 0.06 0.00 1 1012.7
20260507105454 39 121 0.0 0.0 0.00 0.06 0.00 1 1012.6
20260507104448 39 121 0.0 0.0 0.00 0.07 0.00 1 1012.6
20260507103510 39 121 0.0 0.0 0.00 0.08 0.00 1 1012.6
20260507102511 39 121 0.0 0.0 0.00 0.08 0.00 1 1012.5
20260507101500 40 121 0.0 0.0 0.00 0.09 0.00 1 1012.5
20260507100520 40 121 0.0 0.0 0.00 0.12 0.00 1 1012.4
20260507095523 39 121 0.0 0.0 0.00 0.13 0.00 1 1012.3
20260507094522 39 121 0.0 0.0 0.00 0.14 0.00 1 1012.4
20260507093531 39 121 0.0 0.0 0.00 0.14 0.00 1 1012.3
20260507091414 40 121 0.0 0.0 0.00 0.15 0.00 1 1012.4
20260507090405 41 121 0.0 0.0 0.00 0.16 0.00 5 1012.6
20260507085340 41 121 0.0 0.0 0.00 0.17 0.00 13 1012.6
20260507084400 41 121 0.0 0.0 0.00 0.18 0.00 21 1012.6
20260507083409 42 121 0.0 0.0 0.00 0.19 0.00 30 1012.6
20260507082357 43 121 0.0 0.0 0.00 0.20 0.00 33 1012.6
20260507080221 41 121 0.0 0.0 0.00 0.22 0.00 23 1012.4
20260507074125 42 121 0.0 0.0 0.00 0.23 0.00 28 1012.5
20260507073121 43 121 0.0 0.0 0.00 0.23 0.00 30 1012.5
20260507072056 44 121 0.0 0.0 0.00 0.24 0.00 31 1012.5
20260507071055 44 121 0.0 0.0 0.00 0.24 0.00 32 1012.5
20260507064948 46 121 0.0 0.0 0.00 0.26 0.00 31 1012.4
20260507063949 46 121 0.0 0.0 0.00 0.27 0.00 27 1012.5
20260507062942 47 121 0.0 0.0 0.00 0.28 0.00 29 1012.5
20260507061956 47 121 0.0 0.0 0.00 0.28 0.00 39 1012.6
20260507060941 47 121 0.0 0.0 0.00 0.28 0.00 36 1012.7
20260507055953 47 121 0.0 0.0 0.00 0.28 0.00 28 1012.8
20260507054944 47 121 0.0 0.0 0.00 0.28 0.00 26 1012.9
20260507052759 47 121 0.0 0.0 0.00 0.29 0.00 34 1013.1
20260507051803 48 121 0.0 0.0 0.00 0.29 0.00 34 1013.2
20260507050756 48 121 0.0 0.0 0.00 0.29 0.00 31 1013.1
20260507045753 48 121 0.0 0.0 0.00 0.29 0.00 30 1013.2
20260507044726 48 121 0.0 0.0 0.00 0.29 0.00 28 1013.1
20260507043714 48 121 0.0 0.0 0.00 0.29 0.00 27 1013.1
20260507041531 48 121 0.0 0.0 0.00 0.29 0.00 47 1013.0
20260507040515 49 121 0.0 0.0 0.00 0.29 0.00 44 1013.1
20260507032056 49 121 0.0 0.0 0.00 0.29 0.28 51 1013.0
20260507031120 49 121 0.0 0.0 0.00 0.29 0.28 49 1012.9
20260507030101 49 121 0.0 0.0 0.00 0.29 0.28 47 1012.6
20260507023941 50 121 0.0 0.0 0.00 0.29 0.28 46 1012.4
20260507022952 50 121 0.0 0.0 0.00 0.29 0.28 47 1012.3
20260507021949 50 121 0.0 0.0 0.00 0.29 0.28 45 1012.5
20260507020933 51 121 0.0 0.0 0.00 0.29 0.28 42 1012.4
20260507015922 51 121 0.0 0.0 0.00 0.29 0.28 40 1012.3
20260507014945 51 121 0.0 0.0 0.00 0.29 0.28 32 1012.0
20260507013949 51 117 0.0 0.0 0.00 0.29 0.28 15 1012.0
20260507012915 51 117 0.0 1.0 0.00 0.29 0.28 9 1011.7
20260507011902 52 113 0.0 0.0 0.00 0.29 0.28 1 1011.8
20260507010835 52 113 0.0 0.0 0.00 0.29 0.28 18 1011.6
20260507005855 52 113 0.0 0.0 0.00 0.29 0.28 24 1011.5
20260507004845 52 113 0.0 0.0 0.00 0.29 0.28 27 1011.7
20260507002706 52 113 0.0 0.0 0.00 0.29 0.28 29 1011.8
20260507001643 52 113 0.0 0.0 0.00 0.29 0.28 21 1012.1
20260507000636 53 113 0.0 0.0 0.00 0.29 0.28 18 1012.3
20260506235602 53 113 0.0 0.0 0.00 0.29 0.28 20 1012.2
20260506234527 53 113 0.0 0.0 0.00 0.29 0.28 22 1011.8
20260506233535 53 113 0.0 0.0 0.00 0.29 0.28 27 1011.7
20260506231410 53 113 0.0 0.0 0.00 0.29 0.28 30 1011.6
20260506230400 53 113 0.0 0.0 0.00 0.29 0.28 30 1011.5
20260506224208 53 113 0.0 0.0 0.00 0.29 0.28 33 1011.2
20260506222022 53 114 0.0 0.0 0.00 0.29 0.28 28 1011.1
20260506221034 53 114 0.0 0.0 0.00 0.29 0.28 27 1011.1
20260506220014 53 116 0.0 0.0 0.00 0.29 0.28 21 1011.3
20260506214958 53 116 0.0 0.0 0.00 0.29 0.28 25 1010.9
20260506214006 53 116 0.0 2.0 0.00 0.29 0.28 22 1010.9
20260506213018 53 115 0.0 1.0 0.00 0.29 0.28 19 1010.8
20260506212029 53 122 0.0 3.0 0.00 0.29 0.28 22 1010.6
20260506211020 53 111 0.0 3.0 0.00 0.29 0.28 12 1010.5
20260506205953 53 130 0.0 3.0 0.00 0.29 0.28 10 1010.4
20260506204947 53 101 0.0 3.0 0.00 0.29 0.28 7 1010.4
20260506204008 53 116 1.0 4.0 0.00 0.29 0.28 9 1010.3
20260506202958 53 127 0.0 4.0 0.00 0.29 0.28 3 1010.2
20260506202015 53 129 1.0 6.0 0.00 0.29 0.28 1 1010.1
20260506201034 53 113 2.0 6.0 0.00 0.29 0.28 6 1010.1
20260506200007 54 117 1.0 4.0 0.00 0.29 0.28 1 1010.0
20260506193904 53 119 1.0 5.0 0.00 0.29 0.28 1 1010.1
20260506191750 53 127 0.0 4.0 0.00 0.29 0.28 1 1010.1
20260506182346 52 122 1.0 4.0 0.00 0.29 0.28 1 1010.0
20260506181332 52 105 1.0 4.0 0.00 0.29 0.28 1 1010.1
20260506180301 52 184 1.0 6.0 0.00 0.29 0.28 1 1010.0
20260506175233 51 146 1.0 6.0 0.00 0.29 0.28 1 1009.9
20260506174243 51 108 1.0 6.0 0.00 0.29 0.28 1 1009.8
20260506173254 51 117 1.0 5.0 0.00 0.29 0.28 1 1009.8
20260506172315 51 106 1.0 5.0 0.00 0.29 0.28 1 1009.8
20260506171312 51 130 2.0 8.0 0.00 0.29 0.28 1 1009.7
20260506170240 51 110 1.0 8.0 0.00 0.29 0.28 1 1009.8
20260506165213 51 112 1.0 7.0 0.00 0.29 0.28 1 1009.9
20260506164233 51 114 2.0 5.0 0.00 0.29 0.28 1 1009.7
20260506163158 51 110 2.0 6.0 0.00 0.29 0.28 1 1009.6
20260506162128 51 113 1.0 6.0 0.00 0.29 0.28 1 1009.3
20260506161123 51 125 1.0 4.0 0.00 0.29 0.28 1 1009.0
20260506160131 50 125 1.0 5.0 0.00 0.29 0.28 1 1008.9
20260506154031 50 125 0.0 3.0 0.00 0.29 0.28 1 1008.9
20260506153002 50 121 0.0 3.0 0.00 0.29 0.28 1 1008.7
20260506152017 50 113 1.0 5.0 0.00 0.29 0.28 1 1008.6
20260506151029 50 127 1.0 5.0 0.00 0.29 0.28 1 1008.6
20260506150026 50 120 1.0 5.0 0.00 0.29 0.28 1 1008.4
20260506145010 50 113 1.0 7.0 0.00 0.27 0.27 1 1008.2
20260506144013 49 129 2.0 7.0 0.00 0.27 0.27 1 1007.8
20260506142953 50 127 2.0 5.0 0.00 0.27 0.27 1 1007.7